DW4238 Weather Reports


time (UTC)temp
C
wind
direction
speed
KPH
gust
KPH
rain 1hr
cm
rain 24hr
cm
rain mn
cm
humidity
%
barometer
mb
20260905022600 28 130 0.0 0.0 0.00 0.10 0.10 79 1012.3
20260905022111 28 130 0.0 3.2 0.00 0.10 0.10 79 1012.3
20260905021542 28 130 0.0 1.6 0.00 0.10 0.10 79 1012.2
20260905021046 28 130 0.0 1.6 0.00 0.10 0.10 80 1012.3
20260905020108 28 130 0.0 3.2 0.00 0.10 0.10 79 1012.1
20260905015619 28 130 0.0 4.8 0.00 0.10 0.10 79 1012.1
20260905015131 28 130 1.6 4.8 0.00 0.10 0.10 79 1012.1
20260905014552 28 129 0.0 1.6 0.00 0.10 0.10 79 1011.8
20260905014042 29 132 0.0 1.6 0.00 0.10 0.10 79 1011.9
20260905013109 29 132 0.0 1.6 0.00 0.10 0.10 78 1011.8
20260905012620 29 132 0.0 8.0 0.00 0.10 0.10 78 1011.9
20260905011619 29 136 0.0 1.6 0.00 0.10 0.10 77 1011.8
20260905011110 30 138 0.0 6.4 0.00 0.10 0.10 77 1011.7
20260905010131 30 140 3.2 11.3 0.00 0.10 0.10 76 1011.7
20260905005636 30 117 1.6 9.7 0.00 0.10 0.10 76 1011.4
20260905005126 30 113 3.2 9.7 0.00 0.10 0.10 75 1011.5
20260905004552 30 113 1.6 6.4 0.00 0.10 0.10 75 1011.5
20260905004057 30 107 3.2 9.7 0.00 0.10 0.10 74 1011.4
20260905003100 31 120 4.8 14.5 0.00 0.10 0.10 73 1011.3
20260905002551 31 125 8.0 14.5 0.00 0.10 0.10 73 1011.3
20260905001614 31 124 4.8 14.5 0.00 0.10 0.10 72 1011.2
20260905001105 31 87 4.8 12.9 0.00 0.10 0.10 72 1011.3
20260905000127 31 124 4.8 14.5 0.00 0.10 0.10 71 1011.3
20260904235538 31 105 4.8 14.5 0.00 0.10 0.10 70 1011.2
20260904234605 32 126 6.4 16.1 0.00 0.10 0.10 70 1011.3
20260904234116 32 83 8.0 16.1 0.00 0.10 0.10 69 1011.2
20260904233611 32 108 8.0 19.3 0.00 0.10 0.10 69 1011.1
20260904233044 32 82 12.9 19.3 0.00 0.10 0.10 68 1011.2
20260904232549 32 82 9.7 17.7 0.00 0.10 0.10 68 1011.3
20260904231619 32 78 11.3 22.5 0.00 0.10 0.10 68 1011.3
20260904231042 32 88 12.9 20.9 0.00 0.10 0.10 67 1011.2
20260904225618 32 137 12.9 22.5 0.00 0.10 0.10 63 1011.2
20260904224615 32 148 11.3 22.5 0.00 0.10 0.10 64 1011.2
20260904224125 32 144 11.3 22.5 0.00 0.10 0.10 65 1011.3
20260904223123 32 143 8.0 16.1 0.00 0.10 0.10 65 1011.2
20260904222539 32 121 9.7 16.1 0.00 0.10 0.10 68 1011.4
20260904222153 32 122 8.0 16.1 0.00 0.10 0.10 68 1011.4
20260904221559 32 123 4.8 16.1 0.00 0.10 0.10 69 1011.4
20260904221042 32 142 11.3 16.1 0.00 0.10 0.10 68 1011.3
20260904220101 32 131 6.4 17.7 0.00 0.10 0.10 69 1011.5
20260904215613 32 165 12.9 17.7 0.00 0.10 0.10 67 1011.6
20260904215124 32 136 12.9 17.7 0.00 0.10 0.10 67 1011.7
20260904214548 32 136 8.0 19.3 0.00 0.10 0.10 69 1011.8
20260904214100 32 104 11.3 19.3 0.00 0.10 0.10 67 1011.9
20260904213122 31 157 9.7 16.1 0.00 0.10 0.10 66 1012.0
20260904212613 31 132 9.7 17.7 0.00 0.10 0.10 68 1012.1
20260904211634 31 126 6.4 16.1 0.00 0.10 0.10 69 1012.2
20260904211125 31 78 9.7 14.5 0.00 0.10 0.10 68 1012.2
20260904210606 31 131 8.0 17.7 0.00 0.10 0.10 70 1012.2
20260904210038 31 119 9.7 17.7 0.00 0.10 0.10 73 1012.2
20260904205547 30 90 4.8 17.7 0.00 0.10 0.10 75 1012.3
20260904204547 30 105 8.0 14.5 0.00 0.10 0.10 76 1012.4
20260904204152 30 130 9.7 20.9 0.00 0.10 0.10 75 1012.4
20260904203542 30 107 11.3 20.9 0.00 0.10 0.10 76 1012.5
20260904203155 30 128 11.3 22.5 0.00 0.10 0.10 78 1012.7
20260904202639 30 129 11.3 24.1 0.00 0.10 0.10 79 1012.7
20260904202130 30 140 9.7 22.5 0.00 0.10 0.10 81 1012.7
20260904201537 30 102 12.9 20.9 0.00 0.10 0.10 82 1012.7
20260904201041 29 135 11.3 17.7 0.00 0.10 0.10 82 1012.8
20260904200101 28 118 6.4 14.5 0.00 0.10 0.10 86 1012.8
20260904195613 28 120 8.0 17.7 0.00 0.10 0.10 86 1012.8
20260904194639 28 111 8.0 12.9 0.00 0.10 0.10 87 1012.9
20260904194128 28 142 6.4 12.9 0.00 0.10 0.10 87 1012.9
20260904193607 28 135 8.0 12.9 0.00 0.10 0.10 86 1012.9
20260904193038 28 132 8.0 12.9 0.00 0.10 0.10 86 1012.9
20260904192549 28 139 4.8 12.9 0.00 0.10 0.10 86 1012.9
20260904191611 28 124 6.4 14.5 0.00 0.10 0.10 85 1013.0
20260904191055 28 134 4.8 12.9 0.00 0.10 0.10 85 1013.1
20260904190602 28 159 9.7 17.7 0.00 0.10 0.10 84 1013.2
20260904190034 28 138 9.7 16.1 0.00 0.10 0.10 83 1013.3
20260904185538 28 150 11.3 16.1 0.00 0.10 0.10 82 1013.4
20260904184608 28 145 6.4 16.1 0.00 0.10 0.10 81 1013.5
20260904184113 29 117 9.7 16.1 0.00 0.10 0.10 80 1013.7
20260904183625 29 130 9.7 16.1 0.00 0.10 0.10 80 1013.7
20260904183046 29 126 8.0 16.1 0.00 0.10 0.10 80 1013.9
20260904182556 30 123 6.4 14.5 0.00 0.10 0.10 80 1014.0
20260904181557 30 109 4.8 17.7 0.00 0.10 0.10 80 1013.9
20260904181050 30 138 8.0 17.7 0.00 0.10 0.10 79 1013.9
20260904180109 30 121 6.4 17.7 0.00 0.10 0.10 79 1014.0
20260904175621 30 91 6.4 14.5 0.00 0.10 0.10 80 1014.0
20260904175127 30 103 4.8 16.1 0.00 0.10 0.10 79 1013.9
20260904174554 30 82 8.0 14.5 0.00 0.10 0.10 80 1013.9
20260904174100 30 76 9.7 17.7 0.00 0.10 0.10 79 1013.8
20260904173550 31 97 9.7 17.7 0.00 0.10 0.10 78 1013.8
20260904173035 31 128 6.4 16.1 0.00 0.10 0.10 76 1013.9
20260904172547 31 78 6.4 14.5 0.00 0.10 0.10 75 1014.0
20260904171613 31 189 3.2 19.3 0.00 0.10 0.10 74 1014.1
20260904171126 31 139 8.0 19.3 0.00 0.10 0.10 75 1014.2
20260904170631 31 173 4.8 12.9 0.00 0.10 0.10 78 1014.2
20260904170059 31 245 4.8 8.0 0.00 0.10 0.10 78 1014.3
20260904165610 30 245 1.6 6.4 0.00 0.10 0.10 78 1014.4
20260904165113 30 246 0.0 14.5 0.00 0.10 0.10 81 1014.4
20260904164540 30 247 0.0 14.5 0.00 0.10 0.10 80 1014.4
20260904164044 30 248 4.8 14.5 0.00 0.10 0.10 79 1014.3
20260904163117 30 213 1.6 12.9 0.00 0.10 0.10 81 1014.3
20260904162601 30 122 3.2 11.3 0.00 0.10 0.10 83 1014.2
20260904161630 30 194 4.8 9.7 0.00 0.10 0.10 84 1014.2
20260904161035 29 207 3.2 8.0 0.00 0.10 0.10 85 1014.1
20260904160054 29 206 6.4 11.3 0.00 0.10 0.10 85 1014.1
20260904155542 29 207 8.0 11.3 0.00 0.10 0.10 86 1014.2
20260904154608 28 140 3.2 9.7 0.00 0.10 0.10 90 1014.2
20260904154059 28 140 3.2 6.4 0.00 0.10 0.10 91 1014.2
20260904153059 28 99 4.8 9.7 0.00 0.10 0.10 92 1014.2
20260904152604 28 82 6.4 8.0 0.00 0.10 0.10 92 1014.2
20260904151623 27 110 0.0 1.6 0.00 0.10 0.10 93 1014.1
20260904151114 27 89 0.0 4.8 0.00 0.10 0.10 93 1014.2
20260904150625 27 94 0.0 4.8 0.00 0.10 0.10 93 1014.1
20260904150046 27 119 0.0 0.0 0.00 0.10 0.10 93 1014.1
20260904145601 27 120 0.0 3.2 0.00 0.10 0.10 93 1014.1
20260904144603 27 111 0.0 4.8 0.00 0.10 0.10 94 1014.0
20260904144107 27 109 1.6 6.4 0.00 0.10 0.10 94 1014.0
20260904143619 27 140 3.2 6.4 0.00 0.10 0.10 94 1014.0
20260904143047 27 116 0.0 4.8 0.00 0.10 0.10 94 1013.9
20260904142552 27 120 0.0 4.8 0.00 0.10 0.10 94 1013.9
20260904141621 27 132 0.0 6.4 0.00 0.10 0.10 94 1013.8
20260904141125 27 133 3.2 8.0 0.00 0.10 0.10 94 1013.8
20260904140613 27 132 0.0 0.0 0.00 0.10 0.10 94 1013.7
20260904140038 27 134 0.0 0.0 0.00 0.10 0.10 94 1013.7
20260904135550 27 134 0.0 4.8 0.00 0.10 0.10 94 1013.6
20260904134612 26 134 4.8 6.4 0.00 0.10 0.10 95 1013.4
20260904134103 26 117 0.0 0.0 0.00 0.10 0.10 95 1013.4
20260904133125 26 115 0.0 0.0 0.00 0.10 0.10 94 1013.2
20260904132541 26 113 0.0 0.0 0.00 0.10 0.10 94 1013.3
20260904132143 26 111 0.0 1.6 0.00 0.10 0.10 94 1013.3
20260904131554 26 111 0.0 4.8 0.00 0.10 0.10 94 1013.3
20260904131106 26 98 0.0 6.4 0.00 0.10 0.10 94 1013.3
20260904130128 26 105 0.0 0.0 0.00 0.10 0.10 94 1013.2
20260904125634 26 104 0.0 0.0 0.00 0.10 0.10 94 1013.1
20260904124638 26 103 0.0 0.0 0.00 0.10 0.10 94 1013.0
20260904124100 26 101 0.0 0.0 0.00 0.10 0.10 94 1013.0
20260904123128 26 98 0.0 0.0 0.00 0.10 0.10 94 1012.9
20260904122607 26 94 0.0 0.0 0.00 0.10 0.10 94 1012.8
20260904122119 26 93 0.0 0.0 0.00 0.10 0.10 94 1012.8
20260904121046 26 90 3.2 6.4 0.00 0.10 0.10 94 1012.6
20260904120108 26 90 0.0 1.6 0.00 0.10 0.10 94 1012.5
20260904115621 26 140 0.0 0.0 0.00 0.10 0.10 94 1012.5
20260904114620 26 140 0.0 0.0 0.00 0.10 0.10 94 1012.3
20260904114034 26 140 0.0 0.0 0.00 0.10 0.10 94 1012.3
20260904113535 26 141 0.0 0.0 0.00 0.10 0.10 94 1012.3
20260904112641 26 140 0.0 0.0 0.00 0.10 0.10 94 1012.2
20260904111601 26 138 0.0 0.0 0.00 0.10 0.10 93 1012.3
20260904111051 26 137 0.0 0.0 0.00 0.10 0.10 93 1012.3
20260904110051 26 137 0.0 0.0 0.00 0.10 0.10 93 1012.3
20260904105603 26 137 0.0 0.0 0.00 0.10 0.10 93 1012.3
20260904104626 26 137 0.0 0.0 0.03 0.10 0.10 93 1012.2
20260904104138 26 137 0.0 0.0 0.03 0.10 0.10 93 1012.2
20260904103622 26 138 0.0 0.0 0.05 0.10 0.10 93 1012.1
20260904103054 26 138 0.0 0.0 0.05 0.10 0.10 93 1012.1
20260904102536 26 138 0.0 0.0 0.08 0.10 0.10 93 1012.1
20260904102150 26 137 0.0 0.0 0.08 0.10 0.10 93 1012.1
20260904101555 26 137 0.0 0.0 0.08 0.10 0.10 93 1012.0
20260904101100 26 137 0.0 0.0 0.08 0.10 0.10 93 1012.0
20260904100607 26 136 0.0 4.8 0.08 0.10 0.10 93 1012.0
20260904100037 26 136 0.0 4.8 0.08 0.10 0.10 93 1012.0
20260904095542 26 155 0.0 9.7 0.10 0.10 0.10 93 1012.1
20260904095154 26 155 1.6 11.3 0.10 0.10 0.10 93 1012.1
20260904094553 26 153 4.8 11.3 0.08 0.08 0.08 93 1011.9
20260904094105 26 186 4.8 12.9 0.08 0.08 0.08 93 1011.9
20260904093621 26 193 6.4 16.1 0.08 0.08 0.08 93 1011.8
20260904093042 26 194 8.0 16.1 0.08 0.08 0.08 93 1011.8
20260904092555 26 208 9.7 16.1 0.05 0.05 0.05 93 1011.7
20260904091617 26 185 11.3 14.5 0.03 0.03 0.03 93 1011.8
20260904091129 26 181 9.7 12.9 0.03 0.03 0.03 93 1011.9
20260904090310 26 175 11.3 14.5 0.03 0.03 0.03 93 1011.9
20260904085611 27 159 11.3 14.5 0.03 0.03 0.03 93 1011.8
20260904084633 27 153 9.7 12.9 0.00 0.00 0.00 92 1011.9
20260904084124 27 183 8.0 12.9 0.00 0.00 0.00 92 1011.9
20260904083629 27 184 11.3 14.5 0.00 0.00 0.00 92 1011.9
20260904083055 27 190 11.3 14.5 0.00 0.00 0.00 92 1011.8
20260904082554 27 198 9.7 16.1 0.00 0.00 0.00 92 1011.9
20260904081624 27 194 11.3 14.5 0.00 0.00 0.00 92 1011.9
20260904081106 27 178 9.7 14.5 0.00 0.00 0.00 92 1011.9
20260904080129 27 183 6.4 11.3 0.00 0.00 0.00 92 1012.0
20260904075540 27 184 6.4 11.3 0.00 0.00 0.00 91 1012.0
20260904074600 27 184 6.4 8.0 0.00 0.00 0.00 91 1012.2
20260904074112 27 185 0.0 6.4 0.00 0.00 0.00 91 1012.2
20260904073622 27 180 1.6 8.0 0.00 0.00 0.00 91 1012.2
20260904073048 27 182 4.8 14.5 0.00 0.00 0.00 91 1012.2
20260904072558 27 182 8.0 14.5 0.00 0.00 0.00 91 1012.3
20260904071620 27 178 9.7 16.1 0.00 0.00 0.00 91 1012.4
20260904071044 27 166 6.4 12.9 0.00 0.00 0.00 91 1012.5
20260904070045 27 163 8.0 11.3 0.00 0.00 0.00 91 1012.5
20260904065535 27 156 6.4 9.7 0.00 0.00 0.00 91 1012.5
20260904065103 27 182 1.6 11.3 0.00 0.00 0.00 91 1012.6
20260904064541 27 161 3.2 12.9 0.00 0.00 0.00 91 1012.6
20260904064049 27 133 8.0 12.9 0.00 0.00 0.00 91 1012.6
20260904063539 27 145 6.4 12.9 0.00 0.00 0.00 91 1012.6
20260904063052 27 148 6.4 14.5 0.00 0.00 0.00 91 1012.5
20260904062542 27 148 6.4 17.7 0.00 0.00 0.00 91 1012.5
20260904062036 27 147 9.7 14.5 0.00 0.00 0.00 91 1012.4
20260904061549 27 169 8.0 19.3 0.00 0.00 0.00 91 1012.4
20260904061100 27 142 12.9 19.3 0.00 0.00 0.00 91 1012.4
20260904060552 27 138 8.0 12.9 0.00 0.00 0.00 90 1012.5
20260904060049 27 140 6.4 16.1 0.00 0.00 0.00 90 1012.5
20260904055535 27 142 9.7 16.1 0.00 0.00 0.00 90 1012.5
20260904055105 27 145 9.7 17.7 0.00 0.00 0.00 90 1012.5
20260904054604 27 146 11.3 19.3 0.00 0.00 0.00 90 1012.4
20260904054053 27 148 11.3 17.7 0.00 0.00 0.00 90 1012.4
20260904053536 27 155 6.4 17.7 0.00 0.00 0.00 90 1012.3
20260904053036 27 151 8.0 14.5 0.00 0.00 0.00 90 1012.3
20260904052545 27 133 8.0 14.5 0.00 0.00 0.00 90 1012.3
20260904052053 27 142 6.4 11.3 0.00 0.00 0.00 91 1012.2
20260904051547 27 145 6.4 11.3 0.00 0.00 0.00 90 1012.1
20260904051038 27 115 6.4 11.3 0.00 0.00 0.00 90 1012.1
20260904050547 27 140 4.8 11.3 0.00 0.00 0.00 90 1012.1
20260904050128 27 131 6.4 14.5 0.00 0.00 0.00 90 1012.1
20260904045539 27 140 6.4 16.1 0.00 0.00 0.00 90 1012.1
20260904044540 27 148 8.0 14.5 0.00 0.00 0.00 90 1012.1
20260904044051 27 143 9.7 14.5 0.00 0.00 0.00 90 1012.1
20260904043111 27 136 8.0 16.1 0.00 0.00 0.00 90 1012.0
20260904042621 27 148 9.7 16.1 0.00 0.00 0.00 89 1012.1
20260904041626 27 144 9.7 17.7 0.00 0.00 0.00 89 1012.1
20260904041130 27 146 9.7 17.7 0.00 0.00 0.00 89 1012.2
20260904040642 27 149 11.3 17.7 0.00 0.00 0.00 89 1012.2
20260904040048 27 169 11.3 17.7 0.00 0.00 0.00 89 1012.1
20260904035553 27 153 11.3 19.3 0.00 0.03 0.00 89 1012.1
20260904034622 27 137 11.3 22.5 0.00 0.03 0.00 89 1012.1
20260904034046 27 149 11.3 22.5 0.00 0.03 0.00 89 1012.3
20260904033046 27 145 12.9 20.9 0.00 0.03 0.00 88 1012.1
20260904032601 27 128 12.9 20.9 0.00 0.03 0.00 88 1012.1
20260904031603 27 142 12.9 20.9 0.00 0.03 0.00 88 1011.9
20260904031108 27 150 14.5 24.1 0.00 0.03 0.00 88 1011.9
20260904030619 27 143 17.7 24.1 0.00 0.03 0.00 88 1011.9
20260904030039 27 140 16.1 24.1 0.00 0.03 0.00 87 1012.0
20260904025550 27 165 16.1 22.5 0.00 0.05 0.00 87 1012.0
20260904024613 27 137 14.5 25.7 0.00 0.05 0.00 87 1011.9
20260904024102 27 159 14.5 27.4 0.00 0.05 0.00 87 1011.9
20260904023128 27 127 12.9 20.9 0.00 0.05 0.00 87 1011.6